Location: Casilda
(33.0440°S, 61.1680°W)
Time: 18:40:26
(UTC-03:00)

ISS - Pass Details

Date: 03 December 2021
Orbit: 417 x 423 km, 51.6° (Epoch: 28 November)

Event Time Altitude Azimuth Distance (km) Brightness Sun altitude
Exits shadow 03:00:17 12° 202° (SSW) 1,390 -0.7 -27.2°
Drops below altitude 10° 03:01:25 10° 182° (S) 1,522 -0.3 -27.1°
Sets 03:04:34 0° 151° (SSE) 2,393 1.4 -26.7°
